GW5695 Weather Reports


time (UTC)temp
F
wind
direction
speed
knots
gust
knots
rain 1hr
in
rain 24hr
in
rain mn
in
humidity
%
barometer
mb
20260510033734 54 226 2.6 2.6 0.00 0.00 0.00 71 1008.4
20260510033232 55 148 0.0 0.9 0.00 0.00 0.00 69 1008.2
20260510032728 56 157 0.9 1.7 0.00 0.00 0.00 66 1008.3
20260510032224 57 160 1.7 2.6 0.00 0.00 0.00 65 1008.5
20260510031719 56 176 0.9 1.7 0.00 0.00 0.00 66 1008.2
20260510031216 55 155 1.7 1.7 0.00 0.00 0.00 68 1008.2
20260510030715 56 138 1.7 2.6 0.00 0.00 0.00 66 1008.3
20260510030213 57 148 0.0 0.9 0.00 0.00 0.00 65 1008.2
20260510025710 57 147 0.9 0.9 0.00 0.00 0.00 63 1008.1
20260510025208 57 133 0.9 1.7 0.00 0.00 0.00 65 1008.2
20260510024704 56 163 3.5 3.5 0.00 0.00 0.00 67 1008.2
20260510024201 55 147 0.0 1.7 0.00 0.00 0.00 68 1008.1
20260510023656 55 147 0.9 1.7 0.00 0.00 0.00 71 1008.1
20260510023154 55 150 1.7 1.7 0.00 0.00 0.00 70 1007.9
20260510022649 56 151 0.9 1.7 0.00 0.00 0.00 69 1007.9
20260510022144 58 152 1.7 5.2 0.00 0.00 0.00 66 1007.7
20260510021640 57 178 0.9 1.7 0.00 0.00 0.00 67 1007.3
20260510021137 57 121 2.6 3.5 0.00 0.00 0.00 67 1007.5
20260510020632 58 162 3.5 3.5 0.00 0.00 0.00 66 1007.5
20260510020127 60 155 4.3 6.1 0.00 0.00 0.00 61 1007.3
20260510015624 60 147 2.6 2.6 0.00 0.00 0.00 61 1007.1
20260510015120 61 150 0.0 5.2 0.00 0.00 0.00 59 1007.0
20260510014615 60 152 1.7 2.6 0.00 0.00 0.00 59 1007.0
20260510014114 60 151 0.0 1.7 0.00 0.00 0.00 60 1007.1
20260510013608 60 166 0.9 1.7 0.00 0.00 0.00 62 1007.0
20260510013104 60 145 0.9 1.7 0.00 0.00 0.00 61 1007.0
20260510012603 61 150 0.0 0.9 0.00 0.00 0.00 60 1006.8
20260510012100 64 101 1.7 2.6 0.00 0.00 0.00 55 1006.8
20260510011559 64 151 0.9 0.9 0.00 0.00 0.00 54 1006.7
20260510011055 64 149 1.7 1.7 0.00 0.00 0.00 54 1006.6
20260510010552 65 144 0.0 0.9 0.00 0.00 0.00 54 1006.6
20260510010049 65 141 0.0 0.9 0.00 0.00 0.00 53 1006.3
20260510005544 66 147 0.0 0.0 0.00 0.00 0.00 51 1006.3
20260510005042 67 145 0.9 2.6 0.00 0.00 0.00 49 1006.3
20260510004540 67 147 1.7 2.6 0.00 0.00 0.00 47 1006.1
20260510004038 67 141 2.6 2.6 0.00 0.00 0.00 47 1005.9
20260510003534 67 129 1.7 2.6 0.00 0.00 0.00 46 1006.0
20260510003035 67 139 1.7 1.7 0.00 0.00 0.00 44 1005.7
20260510002530 67 148 0.0 0.0 0.00 0.00 0.00 44 1005.7
20260510002028 68 148 0.0 0.9 0.00 0.00 0.00 43 1005.5
20260510001525 69 143 0.0 0.0 0.00 0.00 0.00 42 1005.4
20260510001023 70 138 0.9 0.9 0.00 0.00 0.00 40 1005.2
20260510000518 71 142 0.0 0.9 0.00 0.00 0.00 38 1005.4
20260510000015 72 80 0.0 0.9 0.00 0.00 0.00 37 1005.3
20260509235512 73 144 0.0 0.9 0.00 0.00 0.00 36 1005.4
20260509235009 74 137 0.0 1.7 0.00 0.00 0.00 36 1005.4
20260509234505 74 110 0.0 1.7 0.00 0.00 0.00 36 1005.3
20260509234003 75 183 1.7 2.6 0.00 0.00 0.00 35 1005.4
20260509233500 75 142 0.9 3.5 0.00 0.00 0.00 34 1005.4
20260509232956 75 103 0.0 1.7 0.00 0.00 0.00 34 1005.2
20260509232454 75 120 0.0 3.5 0.00 0.00 0.00 34 1005.3
20260509231950 75 135 0.9 3.5 0.00 0.00 0.00 34 1005.2
20260509231446 74 125 0.0 1.7 0.00 0.00 0.00 35 1005.1
20260509230945 72 160 0.0 1.7 0.00 0.00 0.00 35 1005.2
20260509230441 72 78 2.6 5.2 0.00 0.00 0.00 35 1005.1
20260509225937 72 21 3.5 3.5 0.00 0.00 0.00 35 1005.0
20260509225433 72 336 4.3 5.2 0.00 0.00 0.00 35 1005.0
20260509224930 72 349 4.3 6.1 0.00 0.00 0.00 34 1005.1
20260509224425 73 109 1.7 5.2 0.00 0.00 0.00 35 1005.0
20260509223923 73 318 3.5 8.7 0.00 0.00 0.00 33 1005.0
20260509223419 73 242 5.2 7.0 0.00 0.00 0.00 34 1005.0
20260509222917 73 142 5.2 7.0 0.00 0.00 0.00 34 1005.0
20260509222412 73 145 1.7 7.8 0.00 0.00 0.00 34 1005.2
20260509221907 73 14 4.3 6.1 0.00 0.00 0.00 34 1004.9
20260509221405 73 272 4.3 6.1 0.00 0.00 0.00 34 1005.0
20260509220900 73 308 4.3 7.0 0.00 0.00 0.00 33 1005.0
20260509220356 73 88 4.3 7.0 0.00 0.00 0.00 33 1004.8
20260509215852 73 87 4.3 5.2 0.00 0.00 0.00 35 1005.0
20260509215349 73 320 5.2 8.7 0.00 0.00 0.00 33 1004.9
20260509214846 73 335 7.0 9.6 0.00 0.00 0.00 32 1005.0
20260509214343 73 335 5.2 7.8 0.00 0.00 0.00 34 1005.0
20260509213840 73 147 3.5 7.0 0.00 0.00 0.00 32 1005.0
20260509213335 73 276 2.6 2.6 0.00 0.00 0.00 32 1004.9
20260509212833 73 150 2.6 2.6 0.00 0.00 0.00 32 1004.8
20260509212331 73 287 1.7 2.6 0.00 0.00 0.00 32 1004.7
20260509211826 73 137 1.7 3.5 0.00 0.00 0.00 32 1004.6
20260509211322 74 125 2.6 5.2 0.00 0.00 0.00 31 1004.6
20260509210819 74 138 3.5 6.1 0.00 0.00 0.00 31 1004.5
20260509210317 74 250 5.2 7.0 0.00 0.00 0.00 32 1004.5
20260509205817 74 205 3.5 6.1 0.00 0.00 0.00 37 1004.4
20260509205312 74 159 1.7 3.5 0.00 0.00 0.00 38 1004.5
20260509204808 72 219 5.2 7.8 0.00 0.00 0.00 40 1004.5
20260509204304 72 195 3.5 6.1 0.00 0.00 0.00 41 1004.4
20260509203800 72 263 5.2 7.8 0.00 0.00 0.00 39 1004.4
20260509203258 72 277 5.2 8.7 0.00 0.00 0.00 39 1004.5
20260509202754 72 256 3.5 7.0 0.00 0.00 0.00 39 1004.4
20260509202250 72 247 5.2 11.3 0.00 0.00 0.00 39 1004.4
20260509201749 72 329 4.3 5.2 0.00 0.00 0.00 37 1004.2
20260509201246 72 273 4.3 7.8 0.00 0.00 0.00 37 1004.4
20260509200743 72 271 5.2 7.0 0.00 0.00 0.00 38 1004.4
20260509200244 72 249 8.7 11.3 0.00 0.00 0.00 37 1004.2
20260509195740 72 257 7.8 8.7 0.00 0.00 0.00 39 1004.6
20260509195235 72 251 5.2 6.1 0.00 0.00 0.00 37 1004.5
20260509194730 72 161 1.7 5.2 0.00 0.00 0.00 36 1004.5
20260509194227 73 128 5.2 7.8 0.00 0.00 0.00 37 1004.8
20260509193724 73 250 6.1 7.8 0.00 0.00 0.00 36 1004.7
20260509193223 73 278 11.3 13.9 0.00 0.00 0.00 35 1004.7
20260509192720 73 233 9.6 12.2 0.00 0.00 0.00 36 1004.9
20260509192215 73 259 7.8 14.8 0.00 0.00 0.00 35 1004.9
20260509191710 73 230 5.2 8.7 0.00 0.00 0.00 36 1004.9
20260509191207 73 298 7.8 9.6 0.00 0.00 0.00 36 1005.0
20260509190703 73 235 10.4 14.8 0.00 0.00 0.00 37 1005.1
20260509190200 73 229 3.5 7.8 0.00 0.00 0.00 40 1005.0
20260509185658 72 308 8.7 14.8 0.00 0.00 0.00 38 1005.0
20260509185154 72 141 5.2 8.7 0.00 0.00 0.00 39 1005.1
20260509184652 72 258 7.0 9.6 0.00 0.00 0.00 39 1005.0
20260509184148 72 161 4.3 11.3 0.00 0.00 0.00 39 1005.3
20260509183645 72 254 7.0 8.7 0.00 0.00 0.00 38 1005.3
20260509183140 71 97 7.8 12.2 0.00 0.00 0.00 41 1005.2
20260509182636 72 283 10.4 13.9 0.00 0.00 0.00 40 1005.4
20260509182133 71 145 5.2 7.8 0.00 0.00 0.00 44 1005.5
20260509181631 71 258 5.2 6.1 0.00 0.00 0.00 44 1005.6
20260509181129 71 160 0.0 2.6 0.00 0.00 0.00 44 1005.6
20260509180625 69 158 2.6 6.1 0.00 0.00 0.00 46 1005.8
20260509180122 70 216 4.3 7.0 0.00 0.00 0.00 46 1005.9
20260509175617 70 102 2.6 6.1 0.00 0.00 0.00 45 1005.9
20260509175114 69 131 1.7 3.5 0.00 0.00 0.00 47 1006.1
20260509174611 70 157 4.3 6.1 0.00 0.00 0.00 46 1006.2
20260509174106 69 150 0.9 3.5 0.00 0.00 0.00 47 1006.4
20260509173601 69 210 1.7 7.0 0.00 0.00 0.00 47 1006.3
20260509173057 69 168 0.9 5.2 0.00 0.00 0.00 47 1006.1
20260509172555 68 202 2.6 3.5 0.00 0.00 0.00 48 1006.3
20260509172050 67 155 0.9 5.2 0.00 0.00 0.00 48 1006.4
20260509171546 68 196 3.5 6.1 0.00 0.00 0.00 46 1006.4
20260509171043 68 188 2.6 3.5 0.00 0.00 0.00 48 1006.3
20260509170539 68 146 1.7 6.1 0.00 0.00 0.00 47 1006.4
20260509170035 68 147 1.7 3.5 0.00 0.00 0.00 49 1006.6
20260509165534 67 156 0.9 3.5 0.00 0.00 0.00 49 1006.6
20260509165029 66 148 2.6 6.1 0.00 0.00 0.00 49 1006.8
20260509164526 67 242 4.3 7.0 0.00 0.00 0.00 49 1006.8
20260509164021 67 70 7.0 8.7 0.00 0.00 0.00 47 1006.8
20260509163520 67 176 3.5 3.5 0.00 0.00 0.00 47 1006.7
20260509163020 67 252 4.3 6.1 0.00 0.00 0.00 48 1006.7
20260509162518 67 247 6.1 11.3 0.00 0.00 0.00 47 1006.7
20260509162013 67 140 6.1 8.7 0.00 0.00 0.00 48 1006.6
20260509161510 67 159 2.6 8.7 0.00 0.00 0.00 46 1006.7
20260509161010 67 247 4.3 7.0 0.00 0.00 0.00 46 1006.8
20260509160506 68 250 5.2 7.0 0.00 0.00 0.00 47 1006.6
20260509160002 67 166 0.9 5.2 0.00 0.00 0.00 46 1006.6
20260509155458 68 227 3.5 5.2 0.00 0.00 0.00 46 1006.7
20260509154955 68 149 0.9 3.5 0.00 0.00 0.00 45 1006.7
20260509154451 67 152 1.7 2.6 0.00 0.00 0.00 45 1006.7
20260509153949 68 185 1.7 1.7 0.00 0.00 0.00 45 1006.6
20260509153445 68 192 1.7 1.7 0.00 0.00 0.00 46 1006.6
20260509152942 67 155 3.5 3.5 0.00 0.00 0.00 46 1006.5
20260509152438 67 162 0.9 1.7 0.00 0.00 0.00 47 1006.5
20260509151935 67 166 1.7 5.2 0.00 0.00 0.00 49 1006.6
20260509151432 66 207 3.5 5.2 0.00 0.00 0.00 49 1006.5
20260509150930 66 151 0.9 1.7 0.00 0.00 0.00 50 1006.5
20260509150427 65 195 2.6 3.5 0.00 0.00 0.00 51 1006.5
20260509145925 66 173 3.5 7.0 0.00 0.00 0.00 48 1006.7
20260509145425 65 166 1.7 3.5 0.00 0.00 0.00 50 1006.5
20260509144921 65 221 3.5 6.1 0.00 0.00 0.00 50 1006.7
20260509144418 65 160 0.9 3.5 0.00 0.00 0.00 53 1006.7
20260509143915 64 229 3.5 6.1 0.00 0.00 0.00 52 1006.8
20260509143412 64 247 6.1 7.0 0.00 0.00 0.00 53 1006.8
20260509142908 64 254 5.2 7.0 0.00 0.00 0.00 53 1006.8
20260509142405 63 150 3.5 6.1 0.00 0.00 0.00 53 1006.8
20260509141900 62 236 5.2 6.1 0.00 0.00 0.00 55 1006.9
20260509141358 62 158 3.5 7.0 0.00 0.00 0.00 54 1007.1
20260509140854 62 254 6.1 8.7 0.00 0.00 0.00 54 1007.1
20260509140351 62 229 5.2 8.7 0.00 0.00 0.00 54 1007.3
20260509135849 62 233 6.1 8.7 0.00 0.00 0.00 55 1007.3
20260509135346 61 243 7.8 11.3 0.00 0.00 0.00 55 1007.6
20260509134843 61 267 8.7 11.3 0.00 0.00 0.00 55 1007.3
20260509134341 61 186 6.1 7.8 0.00 0.00 0.00 55 1007.6
20260509133837 61 250 8.7 9.6 0.00 0.00 0.00 55 1007.7
20260509133334 60 130 7.8 12.2 0.00 0.00 0.00 56 1007.8
20260509132833 60 253 4.3 7.0 0.00 0.00 0.00 58 1007.7
20260509132331 59 206 2.6 5.2 0.00 0.00 0.00 58 1007.8
20260509131827 59 303 5.2 6.1 0.00 0.00 0.00 59 1007.7
20260509131324 58 241 4.3 7.8 0.00 0.00 0.00 60 1007.9
20260509130821 58 129 3.5 7.0 0.00 0.00 0.00 59 1007.7
20260509130316 58 250 3.5 5.2 0.00 0.00 0.00 60 1007.6
20260509125813 57 244 3.5 5.2 0.00 0.00 0.00 60 1007.8
20260509125310 57 230 2.6 3.5 0.00 0.00 0.00 60 1007.3
20260509124806 57 239 3.5 3.5 0.00 0.00 0.00 60 1007.3
20260509124303 57 205 2.6 3.5 0.00 0.00 0.00 61 1007.5
20260509123801 56 243 2.6 5.2 0.00 0.00 0.00 60 1007.3
20260509123258 56 232 2.6 3.5 0.00 0.00 0.00 60 1007.5
20260509122754 56 219 3.5 3.5 0.00 0.00 0.00 60 1007.5
20260509122251 56 150 0.0 2.6 0.00 0.00 0.00 61 1007.5
20260509121748 56 214 2.6 3.5 0.00 0.00 0.00 60 1007.7
20260509121245 55 253 3.5 3.5 0.00 0.00 0.00 59 1007.7
20260509120743 55 214 2.6 3.5 0.00 0.00 0.00 59 1007.7
20260509120240 55 210 3.5 5.2 0.00 0.00 0.00 59 1007.9
20260509115738 55 125 3.5 3.5 0.00 0.00 0.00 59 1007.7
20260509115235 55 181 1.7 2.6 0.00 0.00 0.00 60 1007.9
20260509114733 55 229 0.9 1.7 0.00 0.00 0.00 61 1007.6
20260509114232 54 160 0.0 0.9 0.00 0.00 0.00 61 1007.6
20260509113730 54 157 0.0 0.0 0.00 0.00 0.00 60 1007.8
20260509113227 54 154 0.0 0.0 0.00 0.00 0.00 60 1007.8
20260509112724 54 176 0.9 1.7 0.00 0.00 0.00 60 1007.6
20260509112221 54 157 0.9 2.6 0.00 0.00 0.00 60 1007.8
20260509111718 54 154 1.7 1.7 0.00 0.00 0.00 61 1007.6
20260509111215 54 266 1.7 2.6 0.00 0.00 0.00 59 1007.3
20260509110712 54 163 1.7 5.2 0.00 0.00 0.00 59 1007.3
20260509110209 54 241 2.6 5.2 0.00 0.00 0.00 58 1007.5
20260509105707 54 240 2.6 5.2 0.00 0.00 0.00 59 1007.3
20260509105204 54 219 3.5 3.5 0.00 0.00 0.00 58 1007.6
20260509104701 54 200 3.5 3.5 0.00 0.00 0.00 58 1007.2
20260509104158 54 180 2.6 5.2 0.00 0.00 0.00 57 1007.5
20260509103656 54 219 3.5 3.5 0.00 0.00 0.00 57 1007.6
20260509103153 54 243 3.5 3.5 0.00 0.00 0.00 57 1007.7
20260509102651 54 218 3.5 3.5 0.00 0.00 0.00 57 1007.7
20260509102148 54 218 3.5 3.5 0.00 0.00 0.00 58 1007.7
20260509101644 54 171 0.9 1.7 0.00 0.00 0.00 59 1007.7
20260509101141 54 177 0.9 1.7 0.00 0.00 0.00 58 1007.7
20260509100638 54 169 1.7 2.6 0.00 0.00 0.00 57 1007.7
20260509100135 54 192 1.7 2.6 0.00 0.00 0.00 57 1007.5
20260509095632 54 173 1.7 2.6 0.00 0.00 0.00 57 1007.8
20260509095129 54 209 1.7 2.6 0.00 0.00 0.00 57 1007.9
20260509094625 54 232 1.7 3.5 0.00 0.00 0.00 57 1007.7
20260509094123 54 169 0.9 2.6 0.00 0.00 0.00 57 1007.7
20260509093621 55 173 1.7 1.7 0.00 0.00 0.00 56 1007.7
20260509093118 55 187 1.7 1.7 0.00 0.00 0.00 55 1007.8
20260509092615 55 159 1.7 1.7 0.00 0.00 0.00 55 1007.7
20260509092114 54 170 0.9 0.9 0.00 0.00 0.00 57 1007.9
20260509091611 55 166 1.7 2.6 0.00 0.00 0.00 56 1007.6
20260509091107 55 175 0.9 1.7 0.00 0.00 0.00 53 1007.8
20260509090605 55 154 0.0 0.9 0.00 0.00 0.00 53 1007.7
20260509085600 55 159 0.9 1.7 0.00 0.00 0.00 53 1007.9
20260509085056 55 155 0.0 0.9 0.00 0.00 0.00 53 1007.8
20260509084553 55 149 0.0 0.0 0.00 0.00 0.00 53 1007.7
20260509084050 55 154 0.0 0.0 0.00 0.00 0.00 53 1007.9
20260509083547 55 150 0.0 0.9 0.00 0.00 0.00 53 1007.9
20260509083043 55 156 0.9 1.7 0.00 0.00 0.00 54 1008.2
20260509082542 55 153 0.0 0.0 0.00 0.00 0.00 54 1007.9
20260509082038 55 149 0.0 0.0 0.00 0.00 0.00 53 1008.1
20260509081536 56 157 0.0 0.0 0.00 0.00 0.00 53 1008.1
20260509081032 56 155 0.0 0.0 0.00 0.00 0.00 52 1008.1
20260509080530 56 147 0.0 0.0 0.00 0.00 0.00 53 1008.1
20260509080028 55 145 0.0 0.0 0.00 0.00 0.00 53 1008.0
20260509075525 55 149 0.0 0.9 0.00 0.00 0.00 53 1008.0
20260509075023 55 148 0.0 0.9 0.00 0.00 0.00 53 1008.0
20260509074520 55 137 0.0 0.0 0.00 0.00 0.00 53 1008.2
20260509074016 55 145 0.0 0.9 0.00 0.00 0.00 53 1008.1
20260509073513 55 152 0.0 0.9 0.00 0.00 0.00 53 1008.4
20260509073009 56 168 0.9 1.7 0.00 0.00 0.00 53 1008.3
20260509072506 56 190 1.7 2.6 0.00 0.00 0.00 53 1008.6
20260509072003 56 203 2.6 2.6 0.00 0.00 0.00 53 1008.3
20260509071459 55 219 1.7 3.5 0.00 0.00 0.00 53 1008.5
20260509070957 56 152 1.7 2.6 0.00 0.00 0.00 53 1008.4
20260509070454 57 138 2.6 5.2 0.00 0.00 0.00 50 1008.3
20260509065949 57 192 2.6 5.2 0.00 0.00 0.00 49 1008.5
20260509065446 57 220 3.5 3.5 0.00 0.00 0.00 49 1008.5
20260509064942 57 232 2.6 3.5 0.00 0.00 0.00 49 1008.3
20260509064440 57 243 2.6 3.5 0.00 0.00 0.00 49 1008.4
20260509063938 57 242 4.3 5.2 0.00 0.00 0.00 49 1008.4
20260509063432 57 248 5.2 5.2 0.00 0.00 0.00 50 1008.4
20260509062930 57 240 3.5 5.2 0.00 0.00 0.00 50 1008.7
20260509062427 57 255 3.5 5.2 0.00 0.00 0.00 50 1008.6
20260509061924 57 219 3.5 5.2 0.00 0.00 0.00 50 1008.7
20260509061422 58 237 4.3 5.2 0.00 0.00 0.00 48 1008.6
20260509060919 58 218 5.2 7.0 0.00 0.00 0.00 47 1008.7
20260509060416 58 282 3.5 7.8 0.00 0.00 0.00 47 1008.8
20260509055911 58 212 3.5 7.8 0.00 0.00 0.00 47 1008.8
20260509055407 58 233 4.3 8.7 0.00 0.00 0.00 46 1008.8
20260509054904 58 236 6.1 9.6 0.00 0.00 0.00 46 1008.9
20260509054401 58 259 7.8 9.6 0.00 0.00 0.00 46 1008.8
20260509053859 58 254 5.2 8.7 0.00 0.00 0.00 47 1008.8
20260509053356 58 257 5.2 11.3 0.00 0.00 0.00 48 1008.9
20260509052854 58 220 7.8 8.7 0.00 0.00 0.00 48 1009.0
20260509052351 58 236 6.1 9.6 0.00 0.00 0.00 48 1009.0
20260509051849 58 240 7.0 8.7 0.00 0.00 0.00 47 1008.9
20260509051347 58 250 7.0 9.6 0.00 0.00 0.00 47 1009.0
20260509050843 58 238 5.2 12.2 0.00 0.00 0.00 47 1008.9
20260509050340 58 257 7.8 9.6 0.00 0.00 0.00 47 1008.9
20260509045837 59 240 6.1 9.6 0.00 0.00 0.00 47 1009.0
20260509045334 59 254 5.2 11.3 0.00 0.00 0.00 47 1008.9
20260509044831 59 242 8.7 12.2 0.00 0.00 0.00 47 1008.9
20260509044328 59 216 7.0 9.6 0.00 0.00 0.00 47 1008.9
20260509043825 58 258 7.8 9.6 0.00 0.00 0.00 47 1008.9
20260509043321 58 264 7.8 11.3 0.00 0.00 0.00 48 1009.0
20260509042817 58 276 5.2 8.7 0.00 0.00 0.00 48 1008.9
20260509042313 58 240 6.1 8.7 0.00 0.00 0.00 49 1008.8
20260509041810 58 238 6.1 9.6 0.00 0.00 0.00 48 1008.9
20260509041308 58 270 6.1 8.7 0.00 0.00 0.00 49 1008.8
20260509040806 58 221 6.1 9.6 0.00 0.00 0.00 49 1009.0
20260509040302 58 244 7.0 11.3 0.00 0.00 0.00 48 1008.8
20260509035800 59 235 7.0 11.3 0.00 0.00 0.00 48 1008.8
20260509035256 59 251 9.6 11.3 0.00 0.00 0.00 48 1008.9
20260509034753 59 273 7.8 12.2 0.00 0.00 0.00 48 1008.8
20260509034251 59 264 9.6 11.3 0.00 0.00 0.00 48 1008.8